[[{"header":{"parameterUnit":"m.s-1","parameterCategory":1,"la1":30.2991,"la2":30.254,"lo1":-89.0895,"lo2":-89.0444,"dy":0.0017,"dx":0.0017,"nx":28,"ny":28,"refTime":"2025-06-09T21:00:00:Z","depth":0,"parameterNumber":2,"parameterNumberName":"U-component_of_WINDS"},"data":[0,0,0,0,0,0,0,0,0,0,0,0,0,0,0,0,0,0,0,0,0,0,0,0,0,0,0,0,0,0,0,0,0,0,0,0,0,0,0,0,0,0,0,0,0,0,0,0,0,0,0,0,0,0,0,0,0,0,1.3551,1.3553,0,1.37,1.3702,1.3704,1.3779,1.3779,1.3779,1.3779,1.3932,1.3936,1.394,0,0,0,0,0,0,0,0,0,0,0,0,0,1.3331,1.3334,1.3551,1.3553,1.3555,1.37,1.3702,1.3704,1.3779,1.3779,1.3779,1.3779,1.3931,1.3936,1.394,0,0,0,0,0,0,0,0,0,0,0,0,0,1.3448,1.3335,1.355,1.3609,1.3616,1.37,1.3702,1.3705,1.3779,1.3779,1.3779,1.3779,1.3929,1.3935,1.3941,1.3977,0,0,1.396,1.3962,0,0,0,0,0,0,0,0,1.3441,1.3456,1.3599,1.3606,1.3613,1.3721,1.3681,1.3796,1.3779,1.3717,1.3779,1.3779,1.3862,1.3873,1.3901,1.3985,1.3991,1.396,1.3964,1.3966,1.3968,0,0,0,0,0,0,0,1.3433,1.345,1.361,1.3601,1.361,1.3629,1.3645,1.3703,1.3787,1.3723,1.3728,1.3745,1.3866,1.3895,1.3906,1.3993,1.396,1.3965,1.3969,1.3971,1.4115,1.4115,0,0,0,0,0,0,1.3415,1.3442,1.3605,1.3615,1.3525,1.3632,1.3651,1.3686,1.3787,1.3802,1.3745,1.3748,1.3885,1.3898,1.3911,1.3961,1.3966,1.3972,1.3976,1.4115,1.4115,1.4115,0,0,0,0,0,0,1.341,1.3429,1.3599,1.353,1.3553,1.3636,1.3675,1.3689,1.3719,1.3804,1.3819,1.376,1.3886,1.3903,1.3961,1.3967,1.3975,1.398,1.4114,1.4115,1.4115,1.406,0,0,0,0,0,0,1.3403,1.3427,1.3441,1.353,1.3557,1.3646,1.3676,1.3692,1.3729,1.3735,1.3822,1.3836,1.3887,1.3951,1.3967,1.3976,1.3985,1.4114,1.4114,1.4115,1.4062,1.4059,1.4056,0,0,0,0,0,1.3395,1.3419,1.3441,1.3461,1.3576,1.3646,1.3661,1.3719,1.3729,1.3745,1.38,1.3833,1.3964,1.3956,1.3974,1.3986,1.4114,1.4114,1.4115,1.4063,1.4059,1.4056,0,0,0,0,0,0,1.3329,1.3432,1.3458,1.3511,1.3569,1.3659,1.368,1.3713,1.377,1.3772,1.3842,1.3861,1.3913,1.3955,1.3945,1.4026,1.4042,1.4046,1.3997,1.3994,1.3991,1.398,1.399,0,0,0,0,0,1.332,1.3368,1.3456,1.3495,1.3523,1.3596,1.3628,1.3668,1.3731,1.3756,1.3815,1.3875,1.393,1.3964,1.4019,1.4068,1.4089,1.4085,1.4082,1.4079,1.4082,1.4112,1.4111,1.4116,1.4116,1.4116,0,0,1.3304,1.3366,1.3392,1.3483,1.3533,1.3581,1.3616,1.3665,1.3702,1.3764,1.3822,1.3867,1.3939,1.3992,1.4019,1.4029,1.4085,1.4079,1.4076,1.4081,1.4112,1.4111,1.4111,1.4116,1.4116,1.4116,0,0,1.3298,1.3349,1.3388,1.3437,1.3512,1.3561,1.357,1.3655,1.3687,1.3747,1.3794,1.3839,1.3931,1.398,1.4017,1.4031,1.4064,1.4047,1.4031,1.406,1.4059,1.4059,1.4065,1.4066,1.4049,1.4049,1.4049,0,1.3267,1.3342,1.3403,1.3451,1.3489,1.3548,1.3587,1.3632,1.3721,1.3747,1.3757,1.3875,1.3927,1.3993,1.3997,1.4025,1.4038,1.4037,1.4054,1.4055,1.4056,1.4062,1.4064,1.4046,1.4047,1.4047,1.4047,0,1.3301,1.3352,1.3374,1.3459,1.35,1.3543,1.3612,1.3646,1.3683,1.373,1.3791,1.3855,1.3925,1.3943,1.3979,1.4015,1.4019,1.4041,1.4058,1.4052,1.4059,1.4061,1.4043,1.4044,1.4044,1.4045,0,0,1.3257,1.3376,1.3383,1.3423,1.351,1.3551,1.3596,1.3665,1.3693,1.3753,1.3793,1.3871,1.3891,1.3933,1.3975,1.4,1.4007,1.4019,1.4022,1.4015,1.4052,1.4035,1.4037,1.403,1.403,1.4031,1.4046,0,1.3264,1.3349,1.3406,1.3469,1.3517,1.3573,1.3614,1.3672,1.3717,1.3765,1.3816,1.387,1.3893,1.3919,1.3946,1.4,1.4016,1.4,1.4069,1.407,1.4049,1.4041,1.4023,1.4034,1.4049,1.405,1.405,0,1.3283,1.3341,1.3409,1.3492,1.3514,1.3549,1.3617,1.3661,1.3729,1.376,1.3807,1.385,1.3901,1.3914,1.3986,1.3974,1.4005,1.4037,1.4038,1.4047,1.406,1.405,1.4039,1.4041,1.4055,1.4054,1.4054,0,1.3245,1.334,1.3393,1.3425,1.3523,1.3546,1.3588,1.3656,1.3693,1.3752,1.3777,1.3841,1.3876,1.3925,1.3984,1.3987,1.405,1.4067,1.4078,1.4076,1.4089,1.4087,1.4084,1.4108,1.4108,1.4108,1.4108,0,1.3247,1.3286,1.3378,1.341,1.3456,1.3521,1.3565,1.3612,1.3671,1.3714,1.3766,1.3805,1.3881,1.3929,1.3976,1.4029,1.4044,1.4071,1.4083,1.4067,1.4063,1.4089,1.409,1.4108,1.4108,1.4108,1.4108,0,1.3212,1.3275,1.3336,1.3424,1.3447,1.3477,1.3552,1.3586,1.3635,1.3689,1.3705,1.3782,1.3842,1.3906,1.3987,1.4018,1.4069,1.4085,1.4046,1.4053,1.406,1.4059,1.4073,1.4079,1.4098,1.4098,1.4098,0,1.3209,1.324,1.3332,1.3364,1.3405,1.3457,1.3496,1.3561,1.36,1.3679,1.3703,1.3767,1.3822,1.3915,1.3978,1.4041,1.4059,1.406,1.4069,1.4052,1.406,1.4058,1.4062,1.4057,1.4056,1.4056,1.4056,0,1.3197,1.3227,1.3281,1.3346,1.3391,1.3445,1.3502,1.3525,1.3602,1.3643,1.3705,1.3747,1.3831,1.3894,1.3964,1.4007,1.4044,1.4052,1.4058,1.4042,1.4018,1.4032,1.4039,1.4052,1.4052,1.4052,1.4053,1.4053,1.3178,1.3209,1.3279,1.3338,1.3387,1.3439,1.3475,1.3529,1.3582,1.3655,1.3691,1.3753,1.382,1.3919,1.3961,1.4011,1.4022,1.403,1.4033,1.4034,1.403,1.401,1.4024,1.4024,1.4024,1.4024,1.4025,0,1.317,1.3217,1.3271,1.3348,1.3395,1.3426,1.349,1.3527,1.3581,1.3641,1.3694,1.3765,1.3827,1.3895,1.3961,1.3987,1.4006,1.4002,1.4001,1.4011,1.4016,1.4004,1.3986,1.3986,1.3986,1.3986,1.3986,1.3986,1.3171,1.3225,1.3263,1.3343,1.3391,1.3452,1.3487,1.3535,1.3583,1.3661,1.3712,1.3756,1.382,1.3891,1.3949,1.3967,1.3989,1.398,1.4004,1.4007,1.401,1.4013,1.4003,1.3985,1.3985,1.3995,1.3995,1.3995]},{"header":{"parameterUnit":"m.s-1","parameterCategory":1,"la1":30.2991,"la2":30.254,"lo1":-89.0895,"lo2":-89.0444,"dy":0.0017,"dx":0.0017,"nx":28,"ny":28,"refTime":"2025-06-09T21:00:00:Z","depth":0,"parameterNumber":3,"parameterNumberName":"V-component_of_WINDS"},"data":[0,0,0,0,0,0,0,0,0,0,0,0,0,0,0,0,0,0,0,0,0,0,0,0,0,0,0,0,0,0,0,0,0,0,0,0,0,0,0,0,0,0,0,0,0,0,0,0,0,0,0,0,0,0,0,0,0,0,4.7751,4.7751,0,4.7751,4.7751,4.7751,4.7691,4.7689,4.7687,4.7686,4.7683,4.7685,4.7686,0,0,0,0,0,0,0,0,0,0,0,0,0,4.7698,4.7699,4.7751,4.7751,4.7751,4.7751,4.7751,4.7751,4.7691,4.7689,4.7687,4.7685,4.7683,4.7684,4.7686,0,0,0,0,0,0,0,0,0,0,0,0,0,4.7712,4.77,4.7751,4.7721,4.7719,4.7751,4.7751,4.7751,4.7691,4.7689,4.7686,4.7684,4.7682,4.7684,4.7686,4.7746,0,0,4.7693,4.7694,0,0,0,0,0,0,0,0,4.7711,4.7714,4.7726,4.7723,4.772,4.7718,4.7731,4.7749,4.7692,4.7702,4.7686,4.7683,4.7697,4.7697,4.7702,4.7746,4.7746,4.7693,4.7694,4.7695,4.7696,0,0,0,0,0,0,0,4.771,4.7713,4.7751,4.7726,4.7723,4.7707,4.7707,4.7734,4.7712,4.7701,4.7696,4.7697,4.7695,4.7701,4.7702,4.7746,4.7693,4.7695,4.7696,4.7697,4.7838,4.7841,0,0,0,0,0,0,4.7714,4.7713,4.7751,4.7751,4.771,4.771,4.7709,4.7721,4.7712,4.7708,4.7699,4.7694,4.7698,4.77,4.7702,4.777,4.7695,4.7697,4.7698,4.7836,4.7839,4.7842,0,0,0,0,0,0,4.7713,4.7718,4.7751,4.7731,4.7734,4.7714,4.7728,4.7723,4.7728,4.7711,4.7706,4.7709,4.7696,4.7699,4.7736,4.7769,4.7698,4.77,4.7833,4.7837,4.784,4.7908,0,0,0,0,0,0,4.7712,4.7718,4.774,4.7732,4.7735,4.7786,4.773,4.7724,4.7732,4.7726,4.7719,4.7715,4.7695,4.7733,4.7738,4.777,4.7701,4.783,4.7835,4.7839,4.7902,4.7913,4.7923,0,0,0,0,0,4.771,4.7759,4.7742,4.7747,4.7763,4.7788,4.7789,4.7765,4.7735,4.7758,4.7747,4.7716,4.7765,4.7737,4.7742,4.7776,4.7827,4.7833,4.7839,4.7898,4.7911,4.7923,0,0,0,0,0,0,4.7771,4.7757,4.7738,4.7786,4.7789,4.7777,4.7804,4.778,4.779,4.7784,4.7753,4.7752,4.7793,4.7789,4.7758,4.7833,4.7791,4.7798,4.7834,4.7847,4.7857,4.7856,4.7703,0,0,0,0,0,4.779,4.7812,4.7799,4.7842,4.7845,4.7825,4.7834,4.7816,4.7817,4.7817,4.7808,4.781,4.7826,4.7836,4.785,4.7903,4.7899,4.7929,4.7939,4.7947,4.7953,4.7979,4.7991,4.786,4.786,4.786,0,0,4.783,4.7825,4.784,4.7854,4.7854,4.7876,4.7826,4.7851,4.7867,4.7821,4.7854,4.7849,4.7848,4.7893,4.7912,4.789,4.7989,4.7954,4.7961,4.7962,4.7986,4.7998,4.8009,4.7864,4.7863,4.7863,0,0,4.7912,4.7912,4.7947,4.7949,4.7949,4.7936,4.7945,4.7938,4.7933,4.7967,4.7932,4.7951,4.7979,4.798,4.7984,4.8069,4.804,4.8075,4.8126,4.8152,4.8163,4.8172,4.82,4.8211,4.8081,4.8081,4.8081,0,4.796,4.7993,4.7969,4.7997,4.8003,4.7965,4.8,4.8002,4.8007,4.8012,4.7988,4.8023,4.802,4.8064,4.8085,4.809,4.8098,4.8073,4.8163,4.8172,4.818,4.8207,4.8218,4.8085,4.8084,4.8084,4.8083,0,4.8051,4.8075,4.8103,4.811,4.812,4.8152,4.8132,4.8146,4.8127,4.8117,4.8152,4.8147,4.8159,4.8169,4.8151,4.821,4.8196,4.8169,4.8125,4.8197,4.8221,4.8232,4.809,4.8089,4.8088,4.8087,0,0,4.8168,4.8163,4.8174,4.8176,4.8175,4.8192,4.8223,4.8235,4.8247,4.8252,4.8275,4.8301,4.8276,4.8281,4.8263,4.8286,4.8352,4.8255,4.8254,4.8271,4.8415,4.8434,4.8447,4.8334,4.8336,4.8338,4.8415,0,4.8246,4.8297,4.8278,4.833,4.835,4.8315,4.8341,4.8343,4.8335,4.835,4.8341,4.8359,4.8325,4.8327,4.8349,4.8339,4.838,4.8334,4.8354,4.8355,4.8352,4.846,4.848,4.8552,4.8424,4.8426,4.8427,0,4.8343,4.8353,4.8408,4.8404,4.8412,4.8436,4.8445,4.8462,4.8463,4.8456,4.8462,4.8439,4.8468,4.8427,4.8465,4.8434,4.8442,4.8439,4.8441,4.8439,4.8393,4.8459,4.8575,4.8585,4.8442,4.8441,4.844,0,4.842,4.8448,4.8484,4.8488,4.8484,4.8502,4.8501,4.8501,4.851,4.8519,4.8524,4.8537,4.8542,4.8552,4.8533,4.8505,4.8574,4.8531,4.8566,4.8567,4.8579,4.8578,4.8696,4.8589,4.8589,4.8589,4.8589,0,4.8507,4.8541,4.8518,4.854,4.8578,4.8556,4.8593,4.8588,4.8589,4.8608,4.858,4.8599,4.8574,4.859,4.8576,4.8609,4.8612,4.8606,4.8601,4.8607,4.8607,4.8609,4.8602,4.8592,4.8591,4.8591,4.859,0,4.8597,4.8584,4.862,4.8616,4.8615,4.8643,4.8638,4.8657,4.8648,4.8674,4.8679,4.8664,4.8682,4.8665,4.8682,4.8672,4.8716,4.8705,4.8715,4.8711,4.8746,4.8742,4.8867,4.8881,4.8768,4.8769,4.877,0,4.8652,4.8677,4.8676,4.8688,4.8689,4.8709,4.8718,4.8698,4.8709,4.8714,4.8733,4.8749,4.876,4.8791,4.8781,4.8794,4.8782,4.8825,4.8783,4.8789,4.878,4.8777,4.8779,4.8832,4.8834,4.8835,4.8836,0,4.8749,4.8742,4.8757,4.8771,4.8784,4.8793,4.88,4.8811,4.8791,4.8805,4.8824,4.8833,4.8851,4.8867,4.8878,4.8876,4.8852,4.8849,4.8858,4.8862,4.8866,4.8862,4.8735,4.8846,4.8845,4.8844,4.8843,4.8843,4.8822,4.8843,4.8845,4.8863,4.8867,4.8875,4.8893,4.8887,4.8903,4.8917,4.8905,4.8927,4.8929,4.8941,4.8942,4.8959,4.8941,4.8954,4.8956,4.8959,4.8963,4.8867,4.8961,4.8961,4.8961,4.8961,4.896,0,4.8915,4.8916,4.8934,4.8945,4.896,4.8939,4.8946,4.8959,4.898,4.8984,4.8997,4.9019,4.9035,4.9027,4.9041,4.9056,4.9045,4.906,4.9057,4.9057,4.898,4.897,4.9068,4.9068,4.9068,4.9068,4.9068,4.9068,4.8966,4.9,4.8994,4.903,4.903,4.9053,4.9059,4.9065,4.9069,4.9095,4.9109,4.9105,4.9104,4.9118,4.9131,4.9129,4.9134,4.9152,4.9146,4.9073,4.9062,4.9052,4.9043,4.9154,4.9155,4.9221,4.9221,4.9222]}]]